Theta_e
299 299 299 300 300 300 300 301 302 302 302 302 302 302 301 300 299 297 295 292 290 290 290 289 289 289 288 288 288 288 288 287 287 287 287 286 286 286 286 285 285 285 285 285 285 285 285 285 285 285 284 284 284 284 284 283 283 283 282 282 282 282 281 281 281 281 281 281 281 281 281 280 280 280 279 279 279 279 280 280 280 280 280 280 279
298 298 298 299 299 299 301 302 301 300 300 300 300 299 298 297 296 294 292 290 290 289 289 289 289 288 288 288 288 287 287 287 287 286 286 286 286 286 285 285 285 285 285 285 285 285 285 285 285 284 284 284 284 284 283 283 283 283 282 282 281 281 281 280 280 280 280 281 281 280 280 280 280 279 279 279 279 279 280 280 280 280 279 279 279
298 298 298 298 298 298 299 300 300 298 298 298 298 299 298 295 294 292 290 289 289 289 289 289 288 288 288 288 287 287 287 286 286 286 286 286 286 285 285 285 285 285 285 285 285 285 285 285 284 284 284 283 283 283 283 283 283 282 282 281 281 281 280 280 280 279 279 279 280 280 280 279 279 279 279 278 278 279 279 279 279 279 279 278 278
298 298 298 297 297 297 297 297 298 296 296 296 297 299 298 295 293 291 289 289 289 288 288 288 288 288 288 287 287 287 286 286 286 286 286 286 285 285 285 285 285 285 285 285 285 285 285 284 284 284 284 283 283 283 283 283 283 282 282 281 281 280 280 280 280 279 278 278 278 279 279 279 279 278 278 278 279 279 279 279 278 278 278 278 278
298 297 297 297 296 296 296 296 296 295 295 295 296 297 296 295 292 290 288 288 288 288 288 288 288 287 287 287 287 286 286 286 286 286 286 285 285 285 285 285 285 285 285 285 285 285 285 284 284 284 284 283 283 283 283 283 282 282 281 281 281 280 280 280 280 279 278 277 277 278 278 278 278 278 278 278 278 278 278 278 278 278 277 277 278
297 296 296 296 295 294 294 294 294 295 295 294 294 294 294 293 292 289 288 288 288 287 287 287 287 287 287 287 287 286 286 286 286 286 286 285 285 285 285 285 285 285 284 285 285 284 284 284 284 283 283 283 284 283 283 283 282 282 281 281 281 281 280 280 279 279 278 277 277 277 277 277 277 277 278 277 277 277 277 277 277 276 276 276 277
295 295 295 294 294 294 293 292 293 294 294 293 293 293 293 292 291 289 288 287 287 287 287 287 287 287 287 287 286 286 286 286 286 286 285 285 285 285 284 284 284 284 284 284 284 284 284 284 283 283 283 283 283 283 283 282 282 281 281 281 281 280 280 280 279 278 277 277 276 276 276 276 277 277 277 277 276 276 276 276 275 275 275 275 276
295 294 294 293 293 293 292 292 292 293 293 292 292 291 291 290 289 288 288 287 287 287 287 287 287 287 286 286 286 286 286 286 286 285 285 285 285 284 284 284 284 284 284 284 284 284 284 284 283 283 283 283 283 282 282 282 281 281 281 281 280 280 280 279 279 278 277 276 276 276 276 276 276 276 276 276 276 276 276 275 275 275 274 274 275
295 294 293 293 293 293 293 292 292 291 291 291 290 289 289 288 288 287 287 287 287 287 287 287 287 287 286 286 286 286 286 286 286 285 285 285 285 284 284 284 284 284 284 284 284 284 284 284 284 284 283 283 282 282 282 281 281 281 281 280 280 280 280 279 278 278 277 276 276 276 275 276 276 276 276 276 276 276 275 275 274 274 274 274 275
294 294 293 293 292 292 292 293 292 291 290 290 290 289 288 287 287 287 286 286 287 287 287 286 286 286 286 286 286 286 285 285 285 285 285 285 285 285 284 284 284 284 285 284 284 284 284 285 285 285 283 283 282 282 282 281 281 280 280 280 280 280 279 279 278 278 277 276 276 276 275 276 276 275 276 276 276 276 275 274 274 274 274 274 274
294 293 293 293 292 291 291 292 292 292 291 290 289 288 288 287 286 286 286 286 286 286 286 286 286 286 286 286 286 285 285 285 285 285 285 285 285 285 284 284 285 286 285 284 284 284 285 286 287 286 284 284 283 283 282 281 281 280 280 280 280 280 279 279 278 278 277 276 276 276 275 276 276 276 276 276 276 275 275 274 274 274 274 274 274
293 293 293 292 291 291 291 290 291 291 291 290 289 288 287 287 286 285 285 285 285 285 285 285 286 286 285 285 285 285 285 285 285 285 285 285 285 284 284 285 286 287 286 284 283 284 285 287 288 287 286 285 285 284 283 282 282 281 280 280 280 280 279 279 278 278 277 277 276 276 276 276 276 276 276 276 276 275 275 274 274 274 274 274 274
293 292 292 292 291 291 290 290 289 290 290 290 289 287 286 286 285 285 285 285 285 284 285 285 285 285 285 285 285 285 285 285 285 285 285 285 285 284 285 287 288 288 286 284 283 283 284 287 288 288 288 287 286 285 284 284 283 282 280 280 280 280 279 279 278 278 277 277 276 276 276 276 276 277 276 276 276 275 275 274 274 274 274 274 274
292 292 291 291 291 290 289 289 289 289 289 288 287 286 286 285 285 285 285 285 284 284 284 284 284 284 284 285 285 285 285 285 285 285 285 285 284 284 286 288 289 288 286 284 283 282 284 285 287 288 288 288 287 286 285 285 284 283 281 280 280 280 279 279 279 278 278 277 277 277 277 277 277 277 277 276 276 276 275 274 274 274 274 273 273
291 291 291 290 290 290 289 288 288 287 287 286 285 285 285 285 285 284 284 284 284 284 284 284 284 284 284 284 284 285 285 285 285 285 285 284 284 286 288 289 289 288 287 285 284 283 284 284 285 286 287 288 288 287 286 284 283 282 281 281 281 280 279 279 279 279 278 278 278 278 278 278 277 277 277 276 276 276 275 275 274 274 274 273 273
290 290 290 290 290 289 289 288 287 287 286 285 285 284 284 284 284 284 284 283 283 283 283 283 283 283 283 284 284 284 284 284 284 285 285 284 285 287 289 289 289 288 288 287 286 285 285 284 284 284 285 286 287 286 285 283 282 281 281 281 281 280 279 279 279 279 279 279 279 278 278 278 277 277 277 276 276 276 275 275 274 274 273 272 272
290 290 290 290 290 289 289 289 288 287 286 286 285 285 284 284 284 284 284 283 283 282 282 282 282 282 283 283 283 283 283 284 284 284 284 285 287 289 289 289 288 288 288 288 288 287 286 285 284 283 283 285 285 285 283 281 280 280 280 280 280 279 279 279 279 279 279 278 278 278 278 278 278 277 277 277 276 276 276 275 274 274 273 272 271
290 290 290 290 290 289 289 288 288 287 287 286 286 285 285 285 284 284 284 283 283 283 282 282 282 282 282 283 283 283 283 284 284 284 285 287 289 290 289 288 287 287 287 287 288 288 287 286 284 283 283 283 283 283 281 280 279 280 280 280 279 279 280 280 280 280 279 278 278 278 277 278 278 278 278 278 277 277 276 275 275 273 272 272 271
290 290 290 290 289 289 289 289 288 288 287 286 286 286 285 285 285 285 284 284 284 284 284 283 283 283 283 283 283 283 283 284 284 284 286 288 289 290 289 287 286 285 285 286 286 286 286 285 284 283 283 283 282 281 280 279 279 279 279 279 278 279 281 282 280 280 279 278 278 278 277 278 277 277 277 278 278 278 277 276 275 274 273 272 271
290 290 290 289 289 289 289 289 288 288 288 287 286 286 286 286 286 286 286 286 286 285 284 284 283 283 283 283 284 283 283 283 284 285 287 289 290 290 288 286 285 285 285 284 284 284 284 284 283 283 283 282 281 281 280 280 279 279 278 278 278 280 282 281 279 279 278 278 278 277 277 276 276 276 277 277 278 278 277 277 276 275 274 273 271
290 290 289 289 289 289 288 288 288 288 288 287 287 287 287 287 287 287 286 286 285 284 284 283 283 283 283 283 283 283 283 284 285 287 289 289 289 288 286 285 284 284 284 283 283 283 283 282 282 282 282 282 281 281 280 280 279 279 278 278 279 280 280 279 278 278 277 277 277 276 276 275 275 275 276 277 277 277 277 277 277 276 275 273 271
289 289 289 288 288 288 288 288 287 287 287 287 287 287 287 287 287 286 285 285 284 283 283 283 283 283 283 283 284 285 286 287 288 288 289 288 286 285 284 284 284 283 283 283 282 282 282 282 281 281 281 281 281 281 280 280 280 280 279 279 279 279 279 278 278 277 276 276 275 275 275 274 274 274 275 275 276 276 277 277 276 275 275 273 272
289 288 288 288 288 288 287 287 287 287 287 287 287 287 286 285 285 285 284 284 283 283 283 283 284 284 285 286 287 287 288 288 288 287 286 285 284 283 283 283 282 282 282 282 281 281 281 281 281 281 281 281 281 281 280 280 280 280 280 280 280 280 280 280 279 278 276 276 275 275 275 275 274 274 275 275 275 275 275 275 275 275 274 273 271
288 288 288 288 287 287 287 287 287 287 287 286 286 286 285 284 284 284 284 284 284 285 285 285 285 285 286 286 287 287 287 286 285 284 284 283 282 282 281 281 281 280 280 281 281 281 280 280 280 280 281 280 280 280 280 280 280 280 280 280 281 281 281 281 280 279 278 277 276 276 275 275 275 275 275 275 275 275 275 275 275 274 273 272 271
288 288 287 287 287 287 286 286 286 286 286 286 286 285 285 285 285 285 285 285 286 286 285 285 285 285 284 285 285 285 284 283 283 282 282 281 281 281 281 280 280 280 280 280 280 280 280 280 280 280 280 281 281 281 280 280 280 280 280 280 280 280 281 281 281 280 279 278 277 277 276 276 275 275 275 275 274 274 274 274 274 273 272 271 270
288 288 287 287 287 286 286 285 285 286 286 286 286 286 287 287 287 286 286 286 286 285 285 284 284 283 283 283 283 283 282 282 282 282 282 281 281 281 281 280 280 280 279 279 280 279 279 280 280 280 280 280 281 281 280 280 280 280 280 280 280 280 280 280 280 280 280 279 278 278 278 277 276 275 275 274 274 274 273 273 273 273 272 271 270
288 287 287 287 286 286 286 286 285 285 286 286 286 287 287 287 287 287 286 286 285 285 284 283 283 282 282 283 283 282 282 282 282 282 281 281 281 281 280 280 280 279 279 279 279 279 279 279 278 278 278 278 278 278 279 279 279 279 279 279 279 279 279 279 279 279 279 279 278 278 278 277 276 275 274 274 273 273 273 273 272 272 271 270 268
288 287 287 287 287 287 287 287 287 286 287 287 287 287 287 287 286 286 286 286 285 284 284 283 283 283 283 283 282 282 281 282 282 282 281 281 280 280 279 279 279 279 278 278 278 278 278 277 277 277 277 276 276 276 276 276 277 277 278 278 278 278 278 278 278 278 278 278 278 278 277 276 276 275 273 273 272 272 272 272 272 271 270 269 267
288 288 288 288 288 287 287 287 287 287 287 286 286 286 286 285 285 285 285 284 284 284 283 283 283 283 282 282 281 281 281 281 281 281 280 279 279 279 279 279 279 278 278 278 278 278 278 278 277 277 277 277 276 275 275 275 275 276 276 277 277 277 277 277 277 277 277 277 277 277 276 275 274 274 273 272 271 271 271 271 271 270 269 267 267
288 288 287 288 287 287 287 287 286 286 286 285 285 284 283 283 283 283 283 283 283 283 282 282 282 282 281 281 281 280 280 280 280 279 279 279 279 278 278 279 278 278 278 278 278 278 278 277 277 277 277 277 276 276 275 275 275 276 276 276 276 276 276 276 276 276 276 276 276 276 275 274 274 273 272 271 271 271 271 271 270 269 268 267 267
287 287 286 287 287 286 286 286 285 285 285 284 284 283 283 282 282 282 282 282 282 282 281 281 281 280 280 280 280 279 279 279 279 279 279 279 279 279 279 279 279 279 279 279 278 278 277 277 277 277 276 276 276 276 276 276 276 276 276 276 276 276 276 276 276 275 275 275 275 275 274 273 273 272 272 271 270 270 270 270 269 268 268 267 266
288 286 286 286 286 285 285 285 284 284 284 283 283 283 283 282 281 281 281 281 281 280 280 279 279 279 279 279 279 279 279 278 278 279 279 279 279 279 279 280 280 280 280 280 279 279 278 277 277 277 277 276 276 276 276 276 276 276 276 276 276 275 275 275 275 275 275 274 274 274 273 273 272 272 271 270 269 269 269 269 268 268 267 267 266
289 287 286 286 285 285 285 285 285 285 284 284 284 284 284 283 282 281 280 280 279 279 279 278 278 278 278 278 278 278 277 277 277 278 278 278 278 278 279 279 279 279 279 280 280 280 279 279 278 278 277 277 277 276 276 276 276 276 276 276 275 275 275 275 275 274 274 274 273 273 273 272 272 271 270 270 269 268 268 268 268 267 266 266 266
288 287 287 286 285 285 285 285 285 285 285 285 284 284 283 283 282 281 280 279 278 278 277 277 277 277 276 276 276 276 276 276 276 276 276 276 276 276 277 277 277 277 278 278 278 277 277 277 277 276 276 275 275 275 275 275 275 275 275 275 274 274 274 274 274 274 273 273 273 272 272 272 271 270 270 269 268 268 267 267 267 267 266 266 266
286 285 285 285 285 284 284 284 284 283 283 282 282 282 281 281 280 280 279 278 277 277 276 275 275 275 275 275 274 274 274 274 274 274 274 274 274 275 275 275 275 275 275 275 275 275 274 274 273 273 273 273 273 272 272 272 272 272 272 272 273 273 273 273 272 272 272 272 272 272 271 271 270 270 269 269 268 267 267 266 266 266 266 266 266
285 284 283 283 283 283 282 282 282 281 281 280 280 280 279 279 278 278 277 277 277 276 275 275 274 274 274 273 273 273 272 272 272 272 272 272 272 272 273 273 272 272 272 272 273 272 272 272 271 271 271 271 271 270 270 270 270 270 270 270 271 271 271 271 271 271 271 270 270 270 270 270 269 269 268 268 267 267 266 266 265 265 265 266 265
284 283 282 282 282 281 281 280 280 279 279 279 278 278 278 277 277 277 276 276 275 275 274 273 273 272 271 271 271 271 271 271 271 271 271 271 271 271 271 270 270 270 270 270 270 270 270 270 270 269 269 269 269 269 269 268 268 269 269 269 269 269 269 269 269 269 269 269 268 268 268 268 268 267 267 267 266 266 265 265 265 264 264 264 264
282 281 281 280 280 280 279 279 278 278 278 277 277 277 276 276 275 275 275 274 273 273 272 272 272 271 270 270 270 271 271 270 271 271 271 271 270 270 270 269 269 269 268 268 268 268 268 268 268 268 267 267 267 267 266 266 266 266 266 266 267 267 267 267 267 267 267 267 267 266 266 266 266 266 266 266 265 265 265 264 264 263 263 263 263
280 279 279 278 278 278 278 278 277 277 277 276 276 276 275 275 274 273 272 272 271 271 270 270 270 270 269 269 269 270 270 270 270 270 270 270 269 269 268 268 268 267 267 267 267 266 266 266 266 266 266 265 265 265 264 264 264 264 264 264 264 264 264 265 265 265 265 265 265 265 264 264 264 264 264 264 264 264 264 263 263 263 262 262 262
279 278 277 277 277 277 277 277 276 276 276 275 275 274 273 273 272 271 271 271 270 270 270 269 269 269 269 268 268 269 269 269 269 269 268 268 268 268 267 267 266 266 265 265 265 265 265 264 264 264 264 264 263 263 263 263 263 263 263 263 263 263 263 263 263 263 263 263 263 263 263 263 263 263 263 263 263 262 262 262 262 262 261 261 261
278 277 276 276 277 276 276 276 275 275 274 273 273 272 272 271 271 271 271 270 270 270 269 269 269 269 268 267 267 267 268 268 267 267 267 266 266 266 266 265 265 265 264 264 264 263 263 263 263 263 263 263 263 262 262 262 262 262 262 262 262 262 262 262 262 262 262 262 262 262 262 262 262 262 262 262 262 262 261 261 261 261 261 260 260
277 277 276 275 276 276 275 274 273 272 272 272 272 272 272 271 271 270 270 270 270 269 269 269 268 268 267 267 266 266 266 266 266 265 265 265 265 265 264 264 264 264 263 263 263 263 263 263 263 263 263 263 262 262 262 262 262 262 262 262 262 262 262 262 262 262 261 261 262 262 262 262 261 261 261 261 261 261 261 261 260 260 260 260 259
276 276 275 274 274 274 273 272 272 271 272 272 271 271 271 271 270 270 270 270 269 269 268 268 267 267 266 266 266 265 265 265 265 264 264 264 264 264 263 263 263 263 263 263 263 263 263 263 263 263 263 262 262 262 262 262 262 262 262 262 262 262 262 262 261 261 261 261 261 261 261 261 261 261 261 261 260 260 260 260 259 259 259 259 259
275 274 273 273 272 272 271 271 271 272 271 271 271 270 270 269 269 269 269 268 268 267 267 266 266 265 265 265 265 265 264 264 264 264 263 263 263 263 263 263 263 263 263 263 263 263 263 263 263 263 263 262 262 262 262 262 262 262 262 262 262 262 262 262 261 261 261 261 261 261 261 261 261 260 260 260 259 259 259 259 259 259 258 258 258
274 273 273 272 271 271 271 271 271 271 270 270 269 269 268 268 268 268 267 267 266 266 266 265 265 265 264 264 264 264 264 263 263 263 263 263 263 263 263 263 263 263 263 263 263 263 263 263 263 263 263 263 262 262 262 262 262 262 262 262 262 262 262 262 261 261 261 261 261 260 260 260 260 260 260 260 259 259 258 259 258 258 258 258 258
272 272 272 272 271 271 270 270 270 269 269 268 268 268 267 267 267 266 266 266 265 265 265 264 264 264 264 264 263 263 263 263 263 263 263 263 263 263 263 263 263 263 263 263 263 263 263 263 263 263 263 263 263 262 262 262 262 262 261 261 261 261 261 261 261 261 261 261 261 260 260 260 260 260 260 259 259 259 258 258 258 258 258 258 258
271 271 271 271 270 270 269 269 268 268 267 267 267 267 266 266 266 265 265 265 264 264 264 264 264 264 263 263 263 263 263 263 263 263 263 263 263 263 263 263 263 263 263 263 263 263 263 263 263 263 263 263 262 262 262 262 262 262 261 261 261 261 261 261 261 261 261 261 260 260 260 260 260 260 259 259 258 258 258 258 258 257 257 257 258
270 270 269 269 269 269 268 268 267 267 267 266 266 266 265 265 265 265 264 264 264 264 264 263 263 263 263 263 263 263 263 263 263 263 263 263 263 263 263 263 263 263 263 263 263 262 262 262 262 262 262 262 262 262 262 262 262 262 262 262 262 261 261 261 261 260 260 260 260 260 260 260 260 260 259 259 258 258 258 257 257 257 257 257 257
268 269 269 268 268 268 267 267 266 266 266 266 265 265 265 264 264 264 264 264 264 263 263 263 263 263 263 263 263 263 263 263 263 263 263 263 263 263 263 263 263 263 263 263 263 262 262 262 262 262 262 262 262 262 262 263 263 263 263 262 262 262 262 261 261 261 260 260 260 260 259 259 259 259 259 259 258 258 258 257 257 257 256 256 256
268 267 267 267 267 266 266 266 265 265 265 265 265 264 264 264 264 264 263 263 263 263 263 263 263 263 263 263 263 263 263 263 263 263 263 263 263 263 263 263 263 263 263 263 263 262 262 262 262 262 262 262 262 263 263 263 263 263 263 263 263 262 262 262 261 261 260 260 259 259 259 259 259 259 259 259 258 258 258 258 257 257 256 256 256
266 266 266 266 266 265 265 265 265 265 264 264 264 264 264 263 263 263 263 263 263 263 263 263 263 263 263 263 263 263 263 263 263 263 263 263 263 262 262 263 262 262 262 262 262 262 262 262 262 262 262 263 263 263 263 263 263 263 263 263 263 262 262 262 262 261 260 260 259 259 259 259 259 259 258 258 258 258 258 258 257 257 256 256 256
Wind_Speed
36 35 35 35 35 36 36 36 35 34 33 34 35 35 36 36 37 38 39 41 41 40 40 38 37 36 35 34 33 32 31 30 28 27 26 24 23 22 22 22 20 19 18 17 16 14 13 12 11 11 11 10 10 9 9 9 8 8 9 10 11 11 12 12 11 11 13 13 13 13 14 15 15 15 15 16 16 15 14 15 15 16 16 16 16
36 36 35 36 36 36 37 37 36 35 35 35 35 36 36 36 37 38 40 41 41 41 40 39 37 36 35 34 33 32 31 29 28 27 25 24 23 22 22 20 19 18 16 15 15 14 13 12 12 12 11 11 11 10 10 10 9 10 11 12 13 13 13 13 13 12 14 15 15 15 16 16 15 15 16 17 17 16 16 16 16 16 16 16 16
36 36 36 36 36 36 36 37 37 36 36 36 36 36 36 36 37 39 41 42 41 40 40 39 38 36 35 34 33 32 30 29 28 26 24 24 23 22 21 20 18 17 16 15 14 14 14 13 13 13 12 12 12 12 11 11 11 12 13 14 14 15 14 14 14 14 15 17 16 16 17 17 16 16 17 18 18 18 18 17 17 17 16 16 16
36 36 36 36 35 36 36 36 36 36 36 36 36 36 35 36 37 40 41 41 41 40 39 39 38 37 36 35 33 32 31 29 27 26 25 24 23 22 21 20 18 17 15 14 14 14 14 14 14 14 14 14 13 13 13 13 14 14 15 15 16 16 16 16 16 16 16 17 18 18 18 19 19 18 17 18 18 18 18 18 18 18 17 16 16
36 37 36 36 35 36 36 36 36 36 36 36 36 36 36 36 38 40 41 40 40 40 40 39 38 37 36 35 34 33 31 29 27 26 26 25 24 22 21 19 18 17 16 15 14 14 14 14 14 15 15 15 15 15 16 16 16 16 16 17 17 17 17 18 18 18 19 21 22 21 20 21 20 18 17 18 19 19 19 19 18 18 17 17 17
36 36 36 36 36 36 36 35 35 36 36 36 36 36 36 37 38 40 41 41 40 40 40 39 38 37 36 35 34 33 31 29 28 27 26 26 24 23 21 20 19 17 16 15 15 14 14 15 15 16 17 17 17 17 17 17 17 18 18 18 18 18 19 20 20 20 21 23 24 24 23 22 21 20 17 16 17 19 20 21 20 18 17 18 19
35 36 36 36 36 36 35 34 35 35 35 35 35 36 36 37 38 40 41 41 40 40 40 40 39 38 37 36 34 32 31 30 29 28 28 27 25 23 22 20 19 18 17 16 16 15 16 16 16 17 18 18 18 18 19 19 19 19 19 19 19 19 20 21 22 22 23 25 25 25 25 23 22 21 17 15 16 17 17 19 18 18 18 19 20
34 35 35 35 35 35 34 33 33 34 34 34 34 35 36 37 38 39 40 41 41 41 41 41 39 38 37 36 34 33 32 31 30 30 29 27 25 23 22 21 20 19 18 17 17 17 18 18 18 19 19 19 19 19 20 20 20 21 20 20 20 21 22 22 23 24 25 26 26 26 25 24 24 22 18 14 14 15 15 16 19 21 20 19 21
34 34 34 34 34 34 33 33 33 32 32 33 34 34 35 36 37 38 39 40 40 41 41 41 40 39 37 36 35 34 33 32 31 30 29 27 25 24 22 21 20 19 18 18 19 19 19 19 19 20 21 21 20 21 21 22 22 23 22 22 22 22 23 24 24 26 26 27 28 27 25 26 26 21 16 13 13 15 16 16 19 22 21 20 23
34 34 35 35 33 32 33 34 33 33 33 33 34 34 35 35 36 37 38 40 40 40 41 40 40 39 38 36 35 34 33 32 31 30 28 26 25 24 23 21 20 19 19 21 22 21 20 19 20 21 22 23 23 23 24 24 25 25 24 24 23 23 24 25 27 28 28 29 30 27 26 29 28 20 16 15 15 16 17 16 17 19 18 19 21
34 34 35 33 31 31 32 33 34 34 34 34 34 34 35 35 36 38 38 39 39 39 40 40 39 39 38 37 36 35 34 32 31 30 28 26 24 23 22 21 20 20 21 23 24 24 22 21 21 22 24 24 24 25 26 27 28 28 26 26 26 26 26 27 28 29 30 31 31 28 28 31 29 21 17 17 15 16 17 15 15 14 12 13 15
33 33 33 32 31 31 32 33 34 34 34 34 34 35 35 36 36 36 37 38 38 38 38 39 39 38 37 36 36 35 33 32 31 29 27 25 24 23 22 21 21 22 23 26 27 26 24 23 23 24 25 26 26 27 28 29 30 30 29 28 28 28 29 29 30 31 32 32 31 31 32 32 29 23 20 18 17 17 16 15 13 13 12 12 13
31 31 31 30 30 30 31 32 32 33 34 34 35 35 35 35 35 35 36 36 36 37 37 37 37 36 36 36 35 34 33 32 30 28 26 25 24 23 23 23 23 23 25 27 29 28 27 27 27 27 27 27 27 29 30 31 32 32 31 30 30 31 30 30 31 32 33 33 32 34 35 32 28 26 23 20 18 17 16 16 15 13 13 13 13
28 27 28 28 28 28 29 30 31 31 32 32 33 34 35 35 34 34 35 35 36 36 36 36 36 36 35 34 34 33 32 31 29 27 26 25 24 24 25 24 24 25 27 28 29 30 31 31 32 31 30 30 30 31 32 34 34 34 33 32 33 33 32 30 29 29 31 32 33 35 35 32 29 27 24 21 21 20 19 20 18 15 16 18 19
24 24 25 26 26 26 27 27 28 28 28 28 29 30 31 31 32 33 34 34 35 35 35 35 35 34 34 34 33 33 32 31 28 27 26 25 25 25 25 25 25 27 29 30 31 32 34 35 36 36 35 35 34 33 34 36 36 36 36 36 37 36 35 34 33 31 31 32 35 36 35 32 30 29 27 25 24 22 20 21 20 19 21 23 24
24 24 25 26 26 27 27 27 27 27 27 27 27 27 28 29 30 30 30 30 30 31 31 32 33 33 32 32 32 32 32 30 27 26 25 25 25 25 25 26 28 30 32 33 34 35 37 38 39 40 41 40 38 36 36 36 36 37 38 38 38 38 39 38 36 36 36 36 38 39 37 35 32 29 27 27 26 23 21 21 21 20 20 20 21
26 26 27 28 28 28 28 28 28 28 28 28 28 28 28 28 28 28 27 26 26 26 27 28 29 29 29 29 30 30 29 27 26 25 26 25 25 25 26 28 30 33 34 35 36 38 39 41 42 44 44 43 42 40 37 36 36 38 38 39 40 40 42 41 38 38 39 39 40 41 39 36 32 28 26 24 23 23 22 23 23 21 18 16 17
26 27 27 28 28 28 28 28 28 28 28 28 28 28 28 27 27 27 26 25 24 24 24 24 24 25 26 27 27 26 25 25 25 26 25 24 25 27 28 29 32 34 36 37 39 40 42 44 45 45 46 46 44 42 39 36 36 38 39 39 40 42 45 43 40 39 40 40 42 42 38 35 30 28 28 26 24 25 27 27 25 21 18 18 19
26 26 26 26 26 26 26 26 27 27 28 28 27 27 26 26 25 24 24 24 24 24 24 23 24 23 23 23 23 23 25 26 26 25 24 24 26 29 30 30 31 34 35 37 40 41 43 45 46 46 47 47 45 42 40 37 37 39 39 38 39 44 47 45 42 41 41 41 43 43 41 39 33 30 30 28 26 28 31 30 27 24 22 23 22
23 23 23 23 24 24 25 25 26 26 27 26 26 25 24 24 23 23 24 23 23 23 23 24 24 24 23 23 24 25 26 26 25 25 25 27 29 31 31 31 32 34 35 36 38 40 41 43 44 45 45 45 43 41 40 39 38 39 38 38 42 47 47 43 40 40 39 39 40 40 40 40 37 32 31 30 30 32 34 34 33 30 27 26 24
21 21 21 21 22 23 23 24 24 25 25 24 24 23 23 22 22 23 23 23 23 23 23 23 24 24 24 24 25 25 25 26 26 27 29 30 30 30 31 32 33 34 35 36 37 38 39 40 41 41 41 41 40 39 39 38 36 36 37 40 44 46 43 40 39 37 35 36 36 35 35 35 33 31 31 32 33 35 37 37 36 33 30 28 26
18 19 20 20 20 21 22 22 22 22 22 22 22 22 21 21 21 21 22 22 22 22 22 22 22 22 22 22 23 24 25 26 27 28 28 29 28 29 30 33 33 33 34 37 38 38 39 39 38 39 39 39 39 38 38 36 32 32 36 38 39 38 36 36 37 33 31 32 31 31 32 31 29 30 32 34 36 39 40 39 37 35 32 29 26
17 18 19 19 19 20 20 21 21 21 21 21 21 21 21 20 20 21 21 22 22 21 21 21 20 21 21 22 23 23 24 24 25 25 26 26 27 28 30 31 32 31 34 38 39 38 38 38 37 37 38 38 38 38 38 37 34 34 36 35 33 32 30 31 33 31 28 27 27 29 32 31 31 33 35 37 39 40 40 39 38 36 31 27 26
17 17 18 18 18 19 19 19 20 20 20 20 20 20 20 20 20 20 20 20 19 19 19 19 19 20 20 21 21 21 21 22 22 23 24 25 26 27 28 29 30 30 33 37 38 38 38 38 37 37 37 37 37 37 38 38 36 36 37 34 32 31 30 31 32 31 29 29 29 30 32 33 33 35 36 37 37 38 38 37 37 34 28 25 26
17 17 17 17 18 18 18 18 18 18 19 19 19 19 19 19 19 18 18 18 18 18 17 17 18 18 19 20 20 19 19 20 20 21 21 22 23 23 24 26 27 28 31 35 37 37 38 38 37 35 35 34 34 33 34 34 32 32 33 31 31 31 31 31 30 28 29 32 31 30 32 32 31 33 34 34 33 34 35 35 34 30 25 24 25
18 18 18 18 18 18 19 19 18 18 18 18 17 17 16 17 17 17 16 16 16 17 17 17 17 17 18 19 18 18 18 18 19 18 18 18 19 19 20 21 22 24 27 31 33 33 34 33 31 30 30 29 28 28 29 30 30 30 30 30 30 31 31 30 29 28 28 30 31 31 33 33 30 30 30 30 31 33 33 32 30 27 23 22 23
19 19 19 18 18 18 19 19 19 18 17 17 16 14 14 14 14 15 15 16 17 17 17 17 17 17 17 17 17 17 17 17 17 17 16 17 17 17 17 18 19 21 24 27 28 29 30 29 29 29 29 28 27 27 28 29 29 28 28 28 29 30 31 31 30 30 31 31 31 32 33 33 31 29 28 28 30 31 31 29 27 24 21 20 21
19 19 18 18 18 17 17 18 18 17 16 15 14 14 13 13 14 14 14 14 14 15 15 16 16 15 15 15 15 15 16 16 16 16 15 16 16 16 17 17 18 19 21 23 24 25 26 27 28 28 27 27 27 26 25 25 24 25 25 25 25 27 28 29 30 31 31 31 31 32 32 30 29 27 26 27 28 29 28 26 24 22 20 19 21
18 18 18 17 17 16 16 15 15 16 16 15 13 12 12 11 12 12 11 11 11 11 11 13 13 12 13 13 13 15 16 16 15 14 14 15 15 15 15 15 15 16 16 17 18 20 22 23 24 25 24 24 24 23 22 21 21 21 22 23 23 24 25 26 28 29 30 30 32 34 32 29 27 26 24 25 26 26 26 24 23 21 20 20 22
19 18 17 17 17 17 16 15 15 15 16 16 15 14 11 10 10 10 10 10 9 9 10 10 10 11 11 12 12 13 14 13 11 11 11 11 11 12 13 13 14 15 15 15 16 19 21 21 21 22 22 21 20 19 19 20 21 22 22 21 22 23 23 24 26 28 29 31 32 32 30 28 27 26 25 25 26 25 25 24 23 22 21 21 23
21 20 18 18 18 18 18 18 17 16 16 16 16 15 13 11 10 9 9 9 9 9 9 8 8 8 9 9 8 9 10 9 8 9 9 9 10 12 13 13 14 16 16 16 19 21 21 20 21 20 19 19 19 19 19 20 21 23 23 21 20 20 21 23 25 26 27 28 29 28 28 28 28 27 26 25 25 24 24 23 22 22 22 22 23
23 21 20 19 19 18 18 18 18 18 17 16 16 15 14 13 12 10 9 9 8 6 6 6 5 5 5 5 5 6 6 6 6 7 8 9 10 11 12 12 13 14 15 16 20 22 21 21 22 22 19 19 20 20 20 20 21 22 22 21 19 19 21 22 23 23 24 25 25 25 26 27 27 26 25 24 22 22 22 23 23 23 22 21 22
21 21 21 20 19 18 17 17 17 17 16 16 15 15 15 14 14 12 10 9 8 7 7 7 7 7 7 7 7 7 7 8 8 7 7 8 10 10 11 12 12 13 13 15 18 20 20 19 20 19 17 16 17 17 18 19 19 20 20 20 19 19 21 22 22 21 21 22 23 24 25 25 25 24 23 23 23 22 22 22 23 22 21 21 21
18 19 18 18 17 17 16 15 15 15 14 14 14 14 13 12 11 11 11 11 9 8 7 6 5 5 5 5 5 6 7 8 8 7 6 7 7 8 9 10 9 9 10 11 12 13 13 12 11 11 10 10 10 11 11 12 13 14 15 16 17 18 19 20 20 20 20 21 21 22 23 23 23 23 23 23 23 22 22 22 22 22 22 22 22
17 17 16 15 15 15 15 14 14 14 13 13 12 12 11 10 10 10 10 10 10 8 6 4 3 4 4 4 3 4 4 4 5 5 5 5 6 6 8 9 9 8 9 10 10 10 10 10 9 9 10 10 9 9 9 9 10 10 11 12 13 13 14 15 15 16 17 18 19 20 21 21 21 21 21 22 22 23 23 22 22 23 23 23 22
17 17 16 15 14 15 14 13 12 12 12 12 11 11 11 10 10 10 9 9 8 8 6 4 3 2 3 3 2 2 2 3 4 5 6 7 8 9 8 8 8 8 7 9 10 10 10 11 11 11 11 11 11 11 11 11 11 11 11 11 12 12 12 13 13 14 14 15 16 17 18 19 19 19 20 21 22 22 23 22 22 22 22 22 22
16 17 16 15 14 14 14 14 13 12 12 12 11 11 11 10 9 9 9 8 7 7 5 4 3 2 1 0 0 1 1 2 4 5 6 7 7 7 6 5 6 6 6 7 8 8 9 10 11 11 12 12 13 13 13 13 13 13 13 13 13 13 13 13 13 13 13 14 14 15 15 16 17 17 18 20 20 20 21 21 21 20 20 20 20
16 16 16 15 14 14 14 14 13 12 12 12 11 10 10 10 9 8 8 8 7 6 6 4 4 3 2 1 1 1 2 3 4 4 5 6 6 6 5 5 5 6 6 6 7 8 8 9 11 12 12 13 14 14 14 15 15 15 15 15 15 14 14 14 14 13 13 13 13 13 13 13 14 15 16 18 19 19 20 20 19 18 18 17 17
17 16 15 15 14 13 13 13 13 12 12 11 11 10 10 10 9 9 9 9 8 7 6 5 4 4 3 3 4 4 5 5 6 6 7 7 8 7 7 6 6 7 7 8 8 9 9 10 11 12 12 13 13 13 14 14 14 14 15 15 15 15 14 14 14 14 13 13 13 12 12 12 12 13 14 15 16 17 18 18 18 18 17 17 18
17 16 15 14 14 14 13 13 12 12 11 11 11 10 10 10 10 10 9 9 8 7 6 5 4 3 3 4 6 6 7 7 7 8 8 8 8 8 8 8 8 8 8 9 9 9 10 10 10 11 11 11 12 12 12 12 12 13 13 13 14 14 13 13 13 13 13 13 13 12 12 12 11 12 12 13 14 15 16 17 18 18 18 18 18
16 16 15 14 13 14 13 13 12 12 12 12 11 11 11 10 10 9 8 7 7 6 5 4 2 2 2 2 3 6 7 7 7 7 7 7 7 8 8 9 9 9 9 9 10 9 9 9 9 10 10 10 10 11 11 11 11 11 11 12 12 12 12 11 12 12 12 12 12 12 12 12 11 12 13 13 14 15 16 16 17 17 18 18 18
15 16 16 14 13 13 13 14 14 13 13 12 11 10 10 9 8 7 7 6 5 4 3 2 1 0 1 2 4 6 7 7 6 6 6 6 7 7 7 8 8 8 9 9 9 10 9 9 9 9 10 10 11 11 11 11 11 12 12 12 12 12 12 11 11 11 12 12 12 12 12 12 13 13 14 14 15 16 16 17 18 18 18 18 17
15 16 16 15 14 14 14 14 14 13 12 11 10 9 8 7 7 6 5 4 4 3 1 1 1 2 3 4 5 6 6 6 5 5 5 5 5 6 6 6 7 8 8 9 10 10 10 10 10 10 10 11 11 12 12 12 13 13 13 13 13 13 12 12 11 11 11 12 12 12 13 13 14 15 15 16 16 16 16 17 17 18 18 18 17
16 16 16 16 15 14 14 13 12 11 10 9 9 8 7 6 5 4 4 3 2 2 1 1 2 3 4 5 5 5 5 5 5 4 4 5 5 5 6 6 7 8 8 9 10 10 11 11 11 11 11 11 11 12 12 12 13 14 14 14 14 14 13 13 12 12 12 13 13 13 13 13 14 15 16 16 15 15 15 15 16 16 17 17 16
16 16 16 16 15 14 13 11 10 9 9 8 7 7 6 4 4 3 3 2 2 2 2 2 3 3 4 4 4 4 4 4 4 5 5 5 6 6 7 7 8 8 9 9 10 11 11 12 12 12 12 12 12 12 12 13 13 14 15 15 16 15 15 14 13 13 13 14 14 14 14 14 15 15 16 15 14 14 14 14 14 14 14 15 15
15 14 14 14 13 12 11 10 9 8 7 7 6 5 5 4 3 2 2 2 2 2 2 3 3 3 4 4 4 4 5 5 5 6 6 7 7 8 8 9 9 9 10 10 11 11 11 12 13 13 13 13 13 13 13 13 13 14 14 15 16 16 15 14 14 14 14 14 14 15 15 15 15 15 16 16 15 14 14 14 14 14 14 14 14
13 13 13 12 11 11 10 9 8 7 7 6 5 4 4 3 3 3 2 2 2 2 3 3 4 4 4 5 5 5 6 6 7 7 8 8 9 9 10 10 10 11 11 11 11 12 12 13 14 14 14 14 14 14 13 13 13 13 14 14 15 15 15 14 14 14 14 14 14 15 15 15 15 15 15 15 15 14 14 14 14 14 15 15 15
12 12 11 11 10 10 9 8 7 7 6 5 4 4 3 3 3 2 2 2 2 3 3 4 5 6 6 6 7 7 8 8 9 9 10 10 10 10 11 12 12 12 12 12 12 13 14 14 15 15 15 15 14 14 14 13 14 14 14 14 15 15 14 14 14 14 13 13 14 14 14 15 15 15 15 15 15 15 15 14 14 14 14 15 15
11 11 10 10 9 8 8 7 6 5 5 4 4 3 3 3 3 3 3 3 4 4 5 6 7 7 8 8 8 9 10 10 11 11 11 11 12 12 12 13 13 14 14 14 14 14 15 15 15 15 15 15 15 15 14 14 14 14 15 15 15 15 15 15 14 13 13 13 13 13 13 14 14 14 14 14 14 14 15 15 14 14 14 14 15
10 9 9 9 8 7 7 6 5 4 4 3 3 3 3 3 3 4 4 5 6 6 7 8 9 9 10 10 10 11 12 12 13 13 13 13 13 13 14 14 15 15 16 16 16 15 15 15 15 15 15 15 15 15 15 15 15 15 16 16 16 16 16 15 14 13 12 12 12 11 11 11 12 12 12 12 12 13 14 14 14 14 14 14 14
9 9 8 7 7 6 5 4 4 3 3 3 3 3 4 4 5 5 6 7 8 8 9 10 10 11 11 12 12 13 13 14 15 15 15 15 15 15 16 16 16 17 17 17 16 16 15 15 14 14 14 14 15 15 15 16 16 16 17 17 16 16 16 15 14 13 12 11 11 11 11 11 11 10 10 10 10 11 11 12 12 13 13 13 13
Wind_Direction
209 209 209 209 210 210 211 212 212 214 215 215 214 212 210 209 207 205 201 197 195 195 195 194 194 194 193 193 193 192 192 191 191 192 192 192 192 194 193 190 190 189 183 181 182 184 188 190 194 199 200 202 206 208 216 224 231 237 241 245 245 242 237 231 232 247 257 262 268 275 280 284 288 294 299 302 306 310 316 322 326 328 331 333 335
208 209 209 210 211 211 212 213 213 213 213 214 214 212 210 209 207 204 201 198 197 197 197 196 195 195 195 195 195 195 194 193 193 194 194 195 196 198 197 195 195 195 192 190 190 191 195 199 204 208 209 213 215 217 224 229 235 243 245 247 249 248 246 244 244 250 260 269 273 274 278 281 284 290 296 301 307 312 315 319 323 326 329 331 333
208 209 209 210 212 212 213 213 212 212 212 212 213 213 212 210 208 206 203 200 199 198 198 197 197 197 197 197 197 197 197 196 196 196 196 198 200 201 202 201 201 202 201 201 201 201 204 207 211 216 219 222 225 227 231 235 239 244 246 247 250 253 255 254 254 257 264 272 275 274 277 280 283 289 294 299 305 310 313 316 321 323 325 327 329
208 209 209 210 211 212 212 212 212 212 211 211 212 212 213 211 209 207 204 202 200 198 198 199 198 198 198 199 199 198 199 198 197 198 200 202 204 205 207 207 206 208 210 212 213 214 216 218 221 225 227 228 232 235 236 240 242 242 245 248 251 256 260 261 262 262 264 269 272 274 276 279 283 287 293 300 303 306 309 313 316 319 319 320 324
208 208 209 209 209 210 211 211 211 211 211 211 211 212 212 211 210 207 205 203 201 199 198 199 199 200 200 201 201 201 201 200 200 202 203 206 208 209 211 212 211 213 217 221 224 226 228 230 231 233 234 235 239 242 243 244 244 244 246 249 253 258 262 264 265 263 262 264 269 274 276 278 281 286 294 300 302 305 309 311 313 314 314 314 318
207 207 207 207 208 209 209 210 211 211 211 211 212 212 211 211 210 208 206 204 202 200 199 200 201 202 203 203 203 203 202 202 204 205 207 209 210 212 214 215 216 218 222 226 231 235 237 239 240 240 242 244 246 249 250 248 246 246 248 251 255 258 261 263 263 263 262 264 268 272 273 275 280 286 293 297 300 305 311 313 313 311 311 313 315
206 206 206 206 207 208 209 209 211 212 212 212 212 212 212 212 211 209 207 205 203 202 201 201 202 203 204 205 205 205 205 205 207 209 211 213 213 214 216 218 220 223 226 230 234 239 242 244 245 248 250 253 255 256 255 252 251 251 253 254 255 257 260 261 261 261 261 263 265 267 269 274 278 282 287 293 297 302 309 312 309 307 310 312 311
205 205 205 205 207 208 208 210 211 212 212 212 212 212 211 211 210 209 208 206 205 204 203 203 204 204 206 206 206 207 207 207 209 211 213 214 216 218 219 221 224 226 229 234 237 243 247 248 251 254 256 258 259 260 259 257 256 255 255 255 254 256 258 258 258 258 259 261 262 264 268 273 275 277 282 290 294 297 302 304 301 304 309 307 306
204 204 204 206 206 207 208 210 211 211 211 211 212 212 211 210 210 209 208 207 206 206 205 205 205 205 205 206 207 209 209 210 212 213 215 215 217 220 222 224 227 230 235 239 242 245 247 251 256 259 260 261 261 261 261 259 258 257 258 257 256 256 257 256 256 256 256 257 259 261 266 269 270 272 276 280 284 289 296 298 298 303 307 303 303
204 203 205 206 206 205 206 208 210 210 211 211 212 212 210 210 210 209 209 209 208 207 206 206 206 207 206 207 208 209 210 212 214 216 217 218 220 223 225 227 230 236 242 245 246 246 248 254 260 262 263 263 262 262 262 260 259 259 259 259 258 257 256 255 254 254 254 254 257 259 261 264 265 266 273 278 280 284 290 292 294 299 304 303 303
204 204 206 206 204 204 204 205 207 209 210 211 211 211 211 211 210 210 209 208 208 207 206 207 208 209 208 208 209 210 211 214 216 218 219 220 223 225 227 230 235 242 248 248 248 248 250 256 260 262 263 263 263 264 264 263 262 261 261 261 260 260 258 255 255 254 253 253 256 257 257 260 265 267 271 274 274 276 281 284 286 289 294 298 299
204 205 205 204 203 204 203 202 203 206 208 209 210 210 210 209 209 208 208 208 208 207 208 208 209 209 209 210 210 212 214 215 217 218 219 221 225 227 229 233 239 245 250 251 251 250 253 257 260 259 261 263 264 265 264 264 263 263 263 263 262 262 261 258 256 255 254 254 257 258 256 258 264 267 265 264 265 269 274 275 273 272 274 279 282
204 204 203 202 202 202 202 201 201 203 206 208 208 208 207 206 207 208 208 208 209 208 208 209 210 210 211 211 212 214 215 217 218 219 221 224 226 227 231 237 243 247 251 254 254 252 255 260 261 260 260 262 262 262 263 264 263 262 262 262 262 263 262 260 258 256 257 256 256 258 259 259 262 265 264 261 261 262 267 269 266 261 262 268 273
202 202 201 201 202 202 202 201 201 203 205 205 204 204 204 205 206 208 209 209 209 209 209 210 211 212 213 213 214 215 218 219 219 220 222 226 227 229 235 243 247 250 253 256 257 256 259 262 263 264 264 263 263 262 262 263 263 262 259 258 260 261 259 256 254 253 256 256 255 257 260 261 264 267 267 262 258 260 268 272 267 259 260 268 275
199 200 199 200 201 201 200 200 200 201 201 200 200 201 202 203 204 207 209 210 210 211 210 211 212 213 214 215 216 217 220 220 219 220 224 225 226 232 241 248 251 253 255 257 258 259 261 262 263 264 264 264 265 265 264 263 263 262 260 259 259 259 256 254 252 251 252 255 259 262 263 264 266 266 265 262 260 264 271 272 265 260 265 272 277
195 197 197 198 200 200 200 199 198 199 198 199 199 200 201 202 204 206 207 209 211 212 211 212 213 213 214 215 216 218 220 219 218 221 223 224 228 237 246 252 254 256 256 257 258 259 261 262 263 263 263 263 265 266 265 263 261 260 260 261 261 258 257 256 255 255 255 256 260 264 265 267 266 264 262 260 262 266 266 261 256 255 263 272 277
194 196 197 198 199 200 199 198 197 197 197 198 199 200 202 204 206 207 207 207 210 212 213 214 215 215 215 215 217 219 220 219 220 222 223 225 234 243 249 253 256 258 259 259 259 261 262 262 262 263 263 264 264 265 264 262 260 260 260 262 262 261 260 259 257 258 258 256 257 260 261 262 260 257 255 253 256 260 253 245 244 245 252 265 275
194 195 197 198 198 198 198 197 196 196 197 198 199 199 201 203 206 207 208 209 211 214 218 220 220 220 221 221 223 225 225 225 223 223 225 232 243 250 253 254 255 256 259 261 262 263 263 263 262 262 263 265 265 264 263 260 259 260 261 261 261 261 263 264 262 261 259 255 255 256 256 255 253 251 250 246 246 249 245 240 240 241 248 259 268
195 196 198 198 198 198 198 198 198 198 199 199 199 199 200 202 205 207 210 213 216 219 222 225 227 228 229 230 231 232 232 230 227 227 232 242 251 255 254 251 252 254 257 261 263 264 263 263 263 263 264 265 265 264 264 261 259 259 260 260 259 261 266 269 267 265 262 258 257 256 255 254 251 247 247 244 241 240 238 239 243 247 256 263 265
196 197 197 197 197 198 199 199 200 200 200 200 200 201 201 203 205 209 212 216 219 221 223 224 226 228 229 230 230 231 231 232 232 237 246 254 258 258 253 249 250 254 257 259 262 263 263 263 264 264 265 266 266 266 266 263 260 260 258 255 256 263 269 270 268 267 267 264 263 261 258 257 254 247 243 241 237 234 234 239 246 252 260 264 261
194 194 194 194 195 197 198 199 200 201 202 201 200 200 203 206 208 210 212 213 214 216 217 219 221 224 227 228 230 232 234 238 243 250 258 261 261 256 251 250 252 255 258 260 262 263 264 264 265 266 267 269 269 268 267 265 262 260 257 255 259 266 270 270 270 271 270 268 267 265 262 260 254 246 241 239 238 237 239 243 249 255 261 263 259
189 189 189 190 192 194 195 197 198 199 199 198 197 198 201 206 208 208 207 207 208 210 213 217 220 224 229 233 237 241 244 249 254 260 263 263 261 256 253 255 256 257 260 262 263 264 265 266 266 268 269 270 271 270 269 267 262 257 257 259 263 266 267 268 270 269 266 266 266 265 263 260 252 245 242 241 240 241 242 245 250 255 261 264 262
183 184 186 187 189 191 192 194 195 195 196 196 196 197 197 199 201 202 202 203 204 208 214 219 224 230 236 241 246 250 254 258 262 265 266 265 263 261 260 260 260 259 259 262 264 266 268 269 269 270 271 272 272 272 272 269 263 259 260 260 260 261 262 263 264 262 259 259 257 257 258 256 249 247 245 243 242 243 245 248 249 251 257 263 265
177 180 182 183 186 188 189 191 192 194 194 194 193 192 191 192 194 197 201 204 208 213 219 224 229 235 241 247 252 256 259 263 265 267 268 268 267 266 265 264 263 260 259 262 265 267 269 271 272 274 275 275 275 275 274 272 267 264 264 262 260 260 259 258 258 256 253 251 249 250 253 252 249 249 250 249 247 247 249 250 247 247 253 260 263
172 174 177 180 182 183 184 187 189 191 190 190 189 188 189 192 195 200 206 211 215 219 223 227 232 236 242 249 255 260 262 266 270 271 273 273 271 270 269 267 265 262 260 262 265 267 270 272 274 276 277 278 278 277 274 270 267 265 265 264 263 262 260 258 258 256 253 252 252 253 255 255 252 251 253 254 249 247 248 246 241 242 250 257 258
167 169 173 176 177 178 178 179 182 185 186 189 192 194 197 199 201 205 210 213 219 223 226 229 234 239 245 253 260 264 267 272 275 276 276 274 273 273 270 268 266 263 262 264 267 269 271 273 274 275 276 276 277 276 274 274 273 270 268 266 263 262 260 259 259 258 258 258 259 261 262 263 260 255 253 250 245 244 245 241 236 240 248 254 255
164 166 169 172 173 175 176 176 179 183 186 191 196 201 205 208 208 210 213 215 220 224 227 231 235 240 248 257 265 270 273 275 277 279 280 278 277 276 272 269 267 265 264 267 271 274 277 278 278 278 278 278 278 278 278 280 280 277 274 269 264 260 259 258 257 256 258 259 262 265 267 267 264 258 253 248 243 243 242 236 234 242 249 251 252
163 164 167 169 171 174 177 179 180 183 187 191 196 199 204 208 211 214 217 220 223 226 230 235 239 245 253 260 264 267 270 274 278 282 283 281 279 277 274 272 272 271 271 275 279 282 284 285 285 285 286 287 288 289 287 286 282 279 277 275 270 265 262 259 256 255 256 258 261 264 268 268 264 259 254 248 244 242 239 234 236 244 247 244 246
161 161 164 167 169 172 175 177 178 181 182 186 191 196 202 209 214 219 223 227 232 236 240 245 250 255 259 261 262 263 267 273 279 282 280 278 278 278 277 277 278 278 280 285 287 288 287 287 289 292 296 297 298 298 297 295 290 283 279 275 272 269 264 259 256 256 257 257 259 261 264 266 264 260 254 249 246 244 239 235 238 243 243 240 245
156 158 162 164 165 167 169 171 173 177 178 180 184 186 191 200 209 216 221 227 232 237 243 250 256 257 258 260 262 264 271 279 284 282 278 276 276 277 280 284 285 285 287 288 282 278 279 282 284 287 290 291 292 292 292 292 290 288 284 278 273 270 266 261 258 259 259 258 258 259 260 261 262 261 257 252 249 246 240 236 239 241 239 240 246
154 156 160 162 163 165 165 166 169 172 174 178 179 178 177 182 191 203 210 216 223 230 236 246 253 257 263 270 272 274 281 287 285 278 274 272 272 273 276 279 280 281 282 279 271 267 268 270 274 276 275 274 276 279 281 282 282 283 283 280 275 270 268 267 266 265 263 260 258 258 258 259 261 262 261 256 252 247 241 236 237 239 240 242 248
150 153 157 158 160 163 164 163 165 166 167 171 175 176 173 168 168 179 193 199 201 202 205 213 220 226 236 248 256 265 274 274 270 273 276 275 275 276 277 277 276 276 275 272 269 267 266 265 269 273 270 267 268 272 274 276 278 279 279 280 278 274 275 278 279 275 268 264 262 261 260 261 262 262 262 259 254 249 245 240 238 239 241 243 248
148 151 154 155 156 160 161 160 161 162 163 166 170 175 178 175 169 168 172 176 177 176 180 192 200 207 216 225 236 249 258 259 262 271 280 278 277 281 284 284 282 281 279 276 274 274 273 271 274 277 278 277 279 281 281 282 283 282 282 282 282 281 284 287 286 281 275 272 270 267 265 266 265 263 263 262 258 254 251 247 242 240 239 242 247
147 148 151 152 153 155 156 156 157 158 160 164 167 171 177 180 176 169 164 164 169 175 184 194 203 213 227 240 249 258 267 271 271 277 289 293 295 296 290 284 282 279 278 282 289 293 294 294 295 301 307 310 311 309 305 301 297 294 290 289 288 289 291 292 288 283 281 279 275 271 270 270 268 266 264 262 259 256 252 248 244 240 239 241 246
141 141 143 146 149 149 149 152 153 154 156 158 160 162 164 165 166 166 165 165 167 169 175 184 196 214 231 244 257 275 291 292 284 281 285 292 296 293 283 280 285 286 282 284 295 306 313 316 318 319 320 323 325 327 326 324 320 316 311 306 302 298 297 296 292 288 286 282 278 276 275 273 270 268 265 262 259 257 253 249 246 244 243 244 247
140 138 139 144 146 145 146 147 148 148 150 149 149 150 151 151 152 153 154 157 159 161 167 177 190 214 236 244 254 281 303 296 286 287 291 294 297 298 294 290 293 294 291 290 292 297 304 310 313 315 317 318 320 323 324 324 324 323 321 317 313 309 305 302 299 295 292 287 283 281 279 276 274 272 268 265 262 258 256 254 251 249 247 245 247
142 142 143 146 148 147 146 145 143 143 143 142 143 144 142 141 142 143 143 146 150 151 153 155 157 166 182 187 120 172 270 298 303 304 306 308 311 315 314 308 300 295 293 292 291 293 296 299 303 309 313 316 317 318 318 317 316 314 313 310 308 307 306 304 301 299 296 293 291 289 286 283 280 277 272 269 265 262 260 259 256 253 251 249 250
142 142 143 145 146 146 144 141 140 140 139 137 138 139 137 136 136 137 138 139 140 140 139 135 133 141 136 45 20 11 328 322 315 311 314 320 327 333 333 326 317 310 304 300 298 298 297 297 300 304 309 311 313 313 313 313 313 311 310 307 304 302 300 297 296 296 296 297 298 297 296 293 290 286 281 276 272 269 267 265 263 260 257 255 254
141 140 141 141 141 140 140 138 137 137 136 135 135 136 137 137 137 136 135 133 130 127 126 123 116 113 90 18 347 343 348 345 337 337 341 341 340 340 336 328 320 312 307 304 304 303 303 302 303 305 308 309 310 311 311 312 313 312 312 311 310 309 307 302 300 300 300 301 301 301 300 300 298 295 291 286 282 279 277 274 272 270 267 264 260
140 138 139 141 140 138 137 136 136 135 135 136 136 137 137 135 133 132 131 131 129 126 123 118 111 100 71 22 347 337 343 347 343 341 342 338 333 331 327 322 318 313 308 308 308 308 310 311 310 311 312 313 313 315 316 316 316 316 316 316 316 317 317 313 308 305 303 303 303 303 303 303 303 301 297 294 292 289 285 283 280 277 274 271 267
141 139 138 139 140 139 137 136 136 135 135 135 135 134 132 129 128 129 129 127 126 123 117 107 94 81 77 37 334 322 328 335 332 328 328 326 321 318 315 311 311 311 310 313 315 317 319 321 321 320 320 320 319 320 320 321 321 320 320 321 320 320 321 320 314 310 308 306 304 304 304 303 302 300 298 296 296 294 292 290 287 283 279 276 272
142 141 138 136 137 138 137 135 134 133 132 131 130 129 127 124 124 126 125 122 119 115 109 103 89 343 264 260 283 298 311 319 315 312 315 313 308 307 307 306 310 314 315 317 320 322 324 326 326 324 323 321 320 320 320 321 321 320 319 320 320 320 321 321 318 314 311 307 304 302 300 299 297 296 296 295 295 295 294 292 291 288 285 281 276
142 139 136 135 136 136 134 133 132 132 131 130 128 126 125 125 125 124 121 118 117 114 108 127 198 252 261 265 275 286 296 302 302 304 308 306 303 305 307 307 310 314 314 316 318 320 321 323 323 321 320 318 317 317 318 318 318 318 318 317 316 317 318 319 318 314 308 305 304 302 299 296 294 293 293 294 294 295 295 294 293 292 289 286 281
141 138 136 137 137 136 133 131 131 131 130 130 129 128 127 127 127 127 127 128 135 148 179 214 232 247 258 266 274 281 287 292 297 301 305 303 302 302 302 303 306 308 309 311 313 314 315 317 317 316 316 315 315 315 317 316 315 315 315 314 313 315 317 317 316 313 308 306 306 304 301 298 296 294 293 294 295 295 295 294 294 294 292 288 283
141 140 140 140 139 136 133 131 132 133 134 134 133 131 131 133 135 137 144 158 174 191 208 225 237 244 251 259 267 274 281 289 296 298 299 298 297 296 296 298 301 302 304 306 307 308 309 311 311 312 312 312 312 312 312 312 312 311 310 310 310 311 313 314 312 308 306 305 304 303 300 298 297 297 297 297 297 295 293 293 293 293 292 289 284
143 143 144 142 139 136 134 135 138 140 140 140 139 137 140 146 152 160 172 183 193 209 222 234 243 250 255 262 269 277 284 289 291 293 293 292 293 295 296 297 299 301 303 303 302 304 305 305 306 307 308 307 308 308 307 307 306 305 305 305 305 307 309 309 306 304 303 301 300 299 297 296 296 296 297 298 297 294 292 292 291 289 288 286 283
146 145 144 141 138 136 138 142 145 146 146 145 145 147 154 161 167 177 190 199 210 227 240 251 258 262 266 270 274 279 284 287 288 290 291 292 293 295 295 296 298 300 300 300 300 300 301 301 301 303 304 304 305 305 304 303 302 301 300 300 301 302 304 303 301 301 301 298 295 294 294 294 295 295 295 295 294 292 291 291 291 290 289 286 282
148 145 141 138 138 140 143 146 147 148 148 147 149 156 164 175 188 201 216 230 242 252 259 264 268 270 272 276 279 282 285 287 288 289 291 292 294 294 293 295 297 297 298 299 299 298 299 299 298 298 300 301 301 302 301 300 299 298 297 297 297 298 298 298 298 298 297 294 293 293 292 292 294 294 293 292 291 289 288 288 289 290 290 288 286
144 141 139 138 139 141 144 145 146 148 149 152 163 175 184 201 218 231 245 256 261 266 269 271 272 275 277 280 282 284 285 286 288 290 291 291 292 292 291 293 294 295 296 297 298 297 297 297 296 296 297 297 298 299 300 299 298 297 297 295 295 294 294 294 295 295 294 294 293 292 292 292 293 293 293 293 291 289 287 286 286 286 285 284 284
141 138 137 139 140 141 144 144 148 156 162 171 188 204 217 233 245 254 263 267 270 272 273 274 276 278 281 284 285 285 286 287 288 289 289 290 290 290 290 291 292 293 293 295 296 295 295 294 294 294 294 295 296 297 297 297 297 296 295 294 293 293 293 293 292 291 290 289 289 289 290 293 294 295 296 296 294 291 289 288 286 285 282 280 281
140 138 138 140 141 145 151 157 165 176 188 203 222 234 245 254 261 265 267 270 272 273 273 275 277 279 281 284 285 284 285 287 287 287 288 289 289 289 289 290 290 291 291 292 292 292 292 292 291 291 291 291 292 292 293 293 294 293 293 292 292 291 290 290 288 286 285 285 286 286 287 289 292 294 297 299 298 297 296 293 289 285 283 281 281